Location: Tel Aviv
(32.0670°N, 34.7670°E)
Time: 03:31:30
(UTC+03:00)

Tiros 1 - Pass Details

Date: 21 January 2022
Orbit: 629 x 663 km, 48.4° (Epoch: 26 May)

Event Time Altitude Azimuth Distance (km) Brightness Sun altitude
Rises 05:51:50 0° 314° (NW) 2,963 - -10.5°
Exits shadow 05:53:58 - 320° (NW) 2,155 9.3 -10.1°
Reaches altitude 10° 05:54:16 10° 321° (NW) 2,044 9.2 -10.0°
Maximum altitude 05:58:48 45° 34° (NE) 867 8.0 -9.1°
Drops below altitude 10° 06:03:16 10° 108° (ESE) 2,016 11.5 -8.2°
Sets 06:05:39 0° 115° (ESE) 2,917 12.9 -7.7°
